Time,TemperatureF,DewpointF,PressureIn,WindDirection,WindDirectionDegrees,WindSpeedMPH,WindSpeedGustMPH,Humidity,HourlyPrecipIn,Conditions,Clouds,dailyrainin,SoftwareType,DateUTC
2013-06-12 00:02:00,78.3,12.2,29.99,NW,318,0.0,3.1,8,0.00,,CLR,0.00,VWS V13.01,2013-06-12 06:02:00,
2013-06-12 00:07:00,77.9,11.9,29.99,NW,318,0.0,3.1,8,0.00,,CLR,0.00,VWS V13.01,2013-06-12 06:07:00,
2013-06-12 00:12:00,77.2,11.4,29.99,NW,319,0.0,3.1,8,0.00,,CLR,0.00,VWS V13.01,2013-06-12 06:12:00,
2013-06-12 00:17:00,76.6,11.0,29.99,NW,320,0.0,0.0,8,0.00,,CLR,0.00,VWS V13.01,2013-06-12 06:17:00,
2013-06-12 00:23:00,76.3,10.7,29.99,West,275,0.0,3.6,8,0.00,,CLR,0.00,VWS V13.01,2013-06-12 06:23:00,
2013-06-12 00:27:00,76.3,10.7,29.99,NW,320,0.0,3.6,8,0.00,,CLR,0.00,VWS V13.01,2013-06-12 06:27:00,
2013-06-12 00:32:00,76.5,10.8,29.99,NW,321,0.0,3.1,8,0.00,,CLR,0.00,VWS V13.01,2013-06-12 06:32:00,
2013-06-12 00:38:00,76.8,11.1,29.99,NW,321,0.0,3.1,8,0.00,,CLR,0.00,VWS V13.01,2013-06-12 06:38:00,
2013-06-12 00:43:00,76.6,11.0,30.02,NW,321,0.0,3.1,8,0.00,,CLR,0.00,VWS V13.01,2013-06-12 06:43:00,
2013-06-12 00:48:00,76.3,10.7,30.02,West,281,0.0,0.0,8,0.00,,CLR,0.00,VWS V13.01,2013-06-12 06:48:00,
2013-06-12 00:53:00,75.9,10.4,30.02,West,281,0.0,0.0,8,0.00,,CLR,0.00,VWS V13.01,2013-06-12 06:53:00,
2013-06-12 00:58:00,75.4,10.0,29.99,WNW,282,0.0,0.0,8,0.00,,CLR,0.00,VWS V13.01,2013-06-12 06:58:00,
2013-06-12 01:03:00,75.0,9.8,29.99,West,281,0.0,0.0,8,0.00,,CLR,0.00,VWS V13.01,2013-06-12 07:03:00,
2013-06-12 01:08:00,74.5,9.4,29.99,WNW,282,0.0,0.0,8,0.00,,CLR,0.00,VWS V13.01,2013-06-12 07:08:00,
2013-06-12 01:13:00,74.1,9.1,30.02,West,281,0.0,0.0,8,0.00,,CLR,0.00,VWS V13.01,2013-06-12 07:13:00,
2013-06-12 01:18:00,73.8,8.8,30.02,West,281,0.0,0.0,8,0.00,,CLR,0.00,VWS V13.01,2013-06-12 07:18:00,
2013-06-12 01:23:00,73.6,8.7,30.02,West,281,0.0,0.0,8,0.00,,CLR,0.00,VWS V13.01,2013-06-12 07:23:00,
2013-06-12 01:28:00,73.2,11.1,30.02,West,281,0.0,0.0,9,0.00,,CLR,0.00,VWS V13.01,2013-06-12 07:28:00,
2013-06-12 01:33:00,73.0,10.9,30.02,West,278,0.0,5.4,9,0.00,,CLR,0.00,VWS V13.01,2013-06-12 07:33:00,
2013-06-12 01:38:00,73.2,11.1,30.02,NE,46,0.0,5.4,9,0.00,,CLR,0.00,VWS V13.01,2013-06-12 07:38:00,
2013-06-12 01:43:00,73.4,8.6,30.05,NW,316,0.0,5.4,8,0.00,,CLR,0.00,VWS V13.01,2013-06-12 07:43:00,
2013-06-12 01:48:00,73.9,9.0,30.05,WNW,293,4.0,7.6,8,0.00,,CLR,0.00,VWS V13.01,2013-06-12 07:48:00,
2013-06-12 01:53:00,75.0,9.8,30.05,WNW,295,2.2,7.6,8,0.00,,CLR,0.00,VWS V13.01,2013-06-12 07:53:00,
2013-06-12 01:58:00,75.2,9.9,30.05,WNW,295,0.0,7.6,8,0.00,,CLR,0.00,VWS V13.01,2013-06-12 07:58:00,
2013-06-12 02:03:00,75.0,9.8,30.05,WNW,295,0.0,0.0,8,0.00,,CLR,0.00,VWS V13.01,2013-06-12 08:03:00,
2013-06-12 02:08:00,74.7,9.5,30.05,NE,53,2.7,3.6,8,0.00,,CLR,0.00,VWS V13.01,2013-06-12 08:08:00,
2013-06-12 02:13:00,73.9,9.0,30.05,NE,54,0.0,3.6,8,0.00,,CLR,0.00,VWS V13.01,2013-06-12 08:13:00,
2013-06-12 02:18:00,73.6,8.7,30.05,NE,54,0.0,0.0,8,0.00,,CLR,0.00,VWS V13.01,2013-06-12 08:18:00,
2013-06-12 02:23:00,73.2,11.1,30.05,ENE,62,0.0,3.6,9,0.00,,CLR,0.00,VWS V13.01,2013-06-12 08:23:00,
2013-06-12 02:28:00,72.7,10.6,30.05,ENE,63,0.0,3.6,9,0.00,,CLR,0.00,VWS V13.01,2013-06-12 08:28:00,
2013-06-12 02:33:00,72.1,10.2,30.05,ENE,70,0.0,3.6,9,0.00,,CLR,0.00,VWS V13.01,2013-06-12 08:33:00,
2013-06-12 02:38:00,71.8,10.0,30.05,ENE,70,0.0,3.6,9,0.00,,CLR,0.00,VWS V13.01,2013-06-12 08:38:00,
2013-06-12 02:43:00,71.2,9.6,30.05,ENE,70,0.0,3.6,9,0.00,,CLR,0.00,VWS V13.01,2013-06-12 08:43:00,
2013-06-12 02:48:00,70.2,8.7,30.05,ENE,70,2.7,3.1,9,0.00,,CLR,0.00,VWS V13.01,2013-06-12 08:48:00,
2013-06-12 02:53:00,69.3,10.4,30.05,ENE,70,0.0,3.1,10,0.00,,CLR,0.00,VWS V13.01,2013-06-12 08:53:00,
2013-06-12 02:58:00,68.9,10.1,30.05,ENE,77,0.0,3.1,10,0.00,,CLR,0.00,VWS V13.01,2013-06-12 08:58:00,
2013-06-12 03:03:00,68.4,9.7,30.05,ENE,77,0.0,0.0,10,0.00,,CLR,0.00,VWS V13.01,2013-06-12 09:03:00,
2013-06-12 03:09:00,67.8,9.3,30.08,ENE,77,0.0,0.0,10,0.00,,CLR,0.00,VWS V13.01,2013-06-12 09:09:00,
2013-06-12 03:14:00,66.9,8.6,30.08,ESE,119,0.0,4.0,10,0.00,,CLR,0.00,VWS V13.01,2013-06-12 09:14:00,
2013-06-12 03:19:00,66.7,8.5,30.08,SSE,168,0.0,2.2,10,0.00,,CLR,0.00,VWS V13.01,2013-06-12 09:19:00,
2013-06-12 03:24:00,66.4,8.2,30.08,SW,224,0.0,3.1,10,0.00,,CLR,0.00,VWS V13.01,2013-06-12 09:24:00,
2013-06-12 03:29:00,66.2,8.1,30.08,SW,226,2.7,3.1,10,0.00,,CLR,0.00,VWS V13.01,2013-06-12 09:29:00,
2013-06-12 03:34:00,65.8,7.8,30.08,WSW,238,0.0,2.7,10,0.00,,CLR,0.00,VWS V13.01,2013-06-12 09:34:00,
2013-06-12 03:39:00,65.5,7.5,30.08,SW,233,2.7,4.0,10,0.00,,CLR,0.00,VWS V13.01,2013-06-12 09:39:00,
2013-06-12 03:44:00,64.9,7.1,30.08,SW,233,0.0,4.0,10,0.00,,CLR,0.00,VWS V13.01,2013-06-12 09:44:00,
2013-06-12 03:49:00,64.2,8.6,30.08,SW,233,0.0,0.0,11,0.00,,CLR,0.00,VWS V13.01,2013-06-12 09:49:00,
2013-06-12 03:54:00,63.7,8.2,30.08,SW,233,0.0,0.0,11,0.00,,CLR,0.00,VWS V13.01,2013-06-12 09:54:00,
2013-06-12 03:59:00,63.0,11.4,30.08,SW,233,0.0,0.0,13,0.00,,CLR,0.00,VWS V13.01,2013-06-12 09:59:00,
2013-06-12 04:04:00,62.4,12.6,30.08,SW,233,0.0,0.0,14,0.00,,CLR,0.00,VWS V13.01,2013-06-12 10:04:00,
2013-06-12 04:09:00,61.7,12.1,30.08,SW,220,0.0,4.0,14,0.00,,CLR,0.00,VWS V13.01,2013-06-12 10:09:00,
2013-06-12 04:14:00,61.5,11.9,30.08,West,259,0.0,4.0,14,0.00,,CLR,0.00,VWS V13.01,2013-06-12 10:14:00,
2013-06-12 04:19:00,61.5,14.9,30.08,SW,224,2.2,2.7,16,0.00,,CLR,0.00,VWS V13.01,2013-06-12 10:19:00,
2013-06-12 04:24:00,61.3,14.8,30.08,South,182,0.0,2.7,16,0.00,,CLR,0.00,VWS V13.01,2013-06-12 10:24:00,
2013-06-12 04:29:00,61.0,14.5,30.08,SSE,158,0.0,2.7,16,0.00,,CLR,0.00,VWS V13.01,2013-06-12 10:29:00,
2013-06-12 04:34:00,60.6,15.6,30.08,WSW,237,0.0,3.1,17,0.00,,CLR,0.00,VWS V13.01,2013-06-12 10:34:00,
2013-06-12 04:39:00,60.4,15.4,30.08,WSW,237,0.0,3.1,17,0.00,,CLR,0.00,VWS V13.01,2013-06-12 10:39:00,
2013-06-12 04:44:00,60.1,17.7,30.08,South,173,2.2,3.1,19,0.00,,CLR,0.00,VWS V13.01,2013-06-12 10:44:00,
2013-06-12 04:49:00,59.9,15.0,30.08,SSE,148,2.2,2.7,17,0.00,,CLR,0.00,VWS V13.01,2013-06-12 10:49:00,
2013-06-12 04:54:00,59.5,17.3,30.08,SSE,148,0.0,2.7,19,0.00,,CLR,0.00,VWS V13.01,2013-06-12 10:54:00,
2013-06-12 04:59:00,59.4,17.1,30.08,SSE,148,0.0,2.7,19,0.00,,CLR,0.00,VWS V13.01,2013-06-12 10:59:00,
2013-06-12 05:04:00,59.0,16.8,30.08,SSE,148,0.0,0.0,19,0.00,,FEW160,0.00,VWS V13.01,2013-06-12 11:04:00,
2013-06-12 05:09:00,58.5,19.8,30.08,SSE,148,0.0,0.0,22,0.00,,FEW160,0.00,VWS V13.01,2013-06-12 11:09:00,
2013-06-12 05:14:00,58.3,19.6,30.08,East,101,0.0,0.0,22,0.00,,FEW160,0.00,VWS V13.01,2013-06-12 11:14:00,
2013-06-12 05:19:00,58.1,21.5,30.08,East,101,0.0,0.0,24,0.00,,FEW160,0.00,VWS V13.01,2013-06-12 11:19:00,
2013-06-12 05:24:00,57.9,22.3,30.11,East,101,0.0,0.0,25,0.00,,FEW160,0.00,VWS V13.01,2013-06-12 11:24:00,
2013-06-12 05:29:00,57.6,22.0,30.11,East,101,0.0,0.0,25,0.00,,FEW160,0.00,VWS V13.01,2013-06-12 11:29:00,
2013-06-12 05:34:00,57.4,21.9,30.11,East,101,0.0,0.0,25,0.00,,FEW160,0.00,VWS V13.01,2013-06-12 11:34:00,
2013-06-12 05:39:00,57.0,23.4,30.11,East,101,0.0,0.0,27,0.00,,FEW160,0.00,VWS V13.01,2013-06-12 11:39:00,
2013-06-12 05:44:00,56.8,23.2,30.11,East,101,0.0,0.0,27,0.00,,FEW160,0.00,VWS V13.01,2013-06-12 11:44:00,
2013-06-12 05:49:00,56.8,23.2,30.11,East,101,0.0,0.0,27,0.00,,FEW160,0.00,VWS V13.01,2013-06-12 11:49:00,
2013-06-12 05:55:00,56.8,23.2,30.11,East,101,0.0,0.0,27,0.00,,FEW160,0.00,VWS V13.01,2013-06-12 11:55:00,
2013-06-12 06:00:00,56.8,23.2,30.11,East,101,0.0,0.0,27,0.00,,FEW160,0.00,VWS V13.01,2013-06-12 12:00:00,
2013-06-12 06:05:00,57.0,23.4,30.11,East,101,0.0,0.0,27,0.00,,SCT160,0.00,VWS V13.01,2013-06-12 12:05:00,
2013-06-12 06:10:00,57.2,23.5,30.11,East,101,0.0,0.0,27,0.00,,SCT160,0.00,VWS V13.01,2013-06-12 12:10:00,
2013-06-12 06:15:00,57.4,23.7,30.11,East,101,0.0,0.0,27,0.00,,SCT160,0.00,VWS V13.01,2013-06-12 12:15:00,
2013-06-12 06:20:00,57.6,23.9,30.11,East,101,0.0,2.2,27,0.00,,SCT160,0.00,VWS V13.01,2013-06-12 12:20:00,
2013-06-12 06:25:00,57.7,24.0,30.11,East,101,0.0,2.2,27,0.00,,SCT160,0.00,VWS V13.01,2013-06-12 12:25:00,
2013-06-12 06:30:00,58.1,25.2,30.11,East,100,0.0,0.0,28,0.00,,SCT160,0.00,VWS V13.01,2013-06-12 12:30:00,
2013-06-12 06:35:00,58.8,25.8,30.11,SE,129,0.0,2.7,28,0.00,,SCT160,0.00,VWS V13.01,2013-06-12 12:35:00,
2013-06-12 06:40:00,59.4,26.3,30.11,SE,129,0.0,2.7,28,0.00,,SCT160,0.00,VWS V13.01,2013-06-12 12:40:00,
2013-06-12 06:45:00,60.1,26.0,30.11,SE,129,2.2,2.2,27,0.00,,SCT160,0.00,VWS V13.01,2013-06-12 12:45:00,
2013-06-12 06:50:00,60.6,25.6,30.11,ESE,109,2.2,4.0,26,0.00,,SCT160,0.00,VWS V13.01,2013-06-12 12:50:00,
2013-06-12 06:55:00,61.2,25.1,30.14,ESE,109,0.0,4.0,25,0.00,,SCT160,0.00,VWS V13.01,2013-06-12 12:55:00,
2013-06-12 07:00:00,61.3,26.2,30.14,ESE,120,2.2,3.1,26,0.00,,SCT160,0.00,VWS V13.01,2013-06-12 13:00:00,
2013-06-12 07:05:00,61.5,26.3,30.14,ESE,121,0.0,3.1,26,0.00,,BKN220,0.00,VWS V13.01,2013-06-12 13:05:00,
2013-06-12 07:10:00,61.9,26.6,30.14,ESE,120,0.0,3.1,26,0.00,,BKN220,0.00,VWS V13.01,2013-06-12 13:10:00,
2013-06-12 07:15:00,62.1,26.8,30.14,SE,125,0.0,0.0,26,0.00,,BKN220,0.00,VWS V13.01,2013-06-12 13:15:00,
2013-06-12 07:20:00,62.1,26.8,30.14,SE,125,0.0,0.0,26,0.00,,BKN220,0.00,VWS V13.01,2013-06-12 13:20:00,
2013-06-12 07:25:00,62.1,26.8,30.14,SE,125,0.0,0.0,26,0.00,,BKN220,0.00,VWS V13.01,2013-06-12 13:25:00,
2013-06-12 07:30:00,62.1,27.7,30.14,SE,125,0.0,0.0,27,0.00,,BKN220,0.00,VWS V13.01,2013-06-12 13:30:00,
2013-06-12 07:35:00,62.4,28.0,30.14,SE,125,0.0,0.0,27,0.00,,BKN220,0.00,VWS V13.01,2013-06-12 13:35:00,
2013-06-12 07:40:00,63.1,28.6,30.14,SE,125,0.0,0.0,27,0.00,,BKN220,0.00,VWS V13.01,2013-06-12 13:40:00,
2013-06-12 07:45:00,64.2,28.6,30.14,West,268,0.0,2.7,26,0.00,,BKN220,0.00,VWS V13.01,2013-06-12 13:45:00,
2013-06-12 07:50:00,65.1,28.5,30.14,SW,223,0.0,2.7,25,0.00,,BKN220,0.00,VWS V13.01,2013-06-12 13:50:00,
2013-06-12 07:55:00,65.8,28.1,30.14,SSE,165,4.0,4.0,24,0.00,,BKN220,0.00,VWS V13.01,2013-06-12 13:55:00,
2013-06-12 08:00:00,66.7,27.8,30.14,SSW,192,0.0,0.0,23,0.00,,BKN220,0.00,VWS V13.01,2013-06-12 14:00:00,
2013-06-12 08:05:00,67.3,27.2,30.14,SSW,213,3.1,4.0,22,0.00,,SCT220,0.00,VWS V13.01,2013-06-12 14:05:00,
2013-06-12 08:10:00,67.5,25.0,30.14,SSE,162,2.7,4.0,20,0.00,,SCT220,0.00,VWS V13.01,2013-06-12 14:10:00,
2013-06-12 08:15:00,67.8,25.3,30.14,SW,230,2.7,3.6,20,0.00,,SCT220,0.00,VWS V13.01,2013-06-12 14:15:00,
2013-06-12 08:20:00,68.2,25.6,30.14,SE,146,3.1,3.6,20,0.00,,SCT220,0.00,VWS V13.01,2013-06-12 14:20:00,
2013-06-12 08:25:00,68.7,28.4,30.14,ESE,105,2.2,3.6,22,0.00,,SCT220,0.00,VWS V13.01,2013-06-12 14:25:00,
2013-06-12 08:30:00,69.3,28.8,30.14,ESE,118,0.0,2.2,22,0.00,,SCT220,0.00,VWS V13.01,2013-06-12 14:30:00,
2013-06-12 08:35:00,69.6,29.1,30.14,ESE,120,0.0,2.7,22,0.00,,SCT220,0.00,VWS V13.01,2013-06-12 14:35:00,
2013-06-12 08:40:00,70.0,29.4,30.14,ESE,113,2.7,3.1,22,0.00,,SCT220,0.00,VWS V13.01,2013-06-12 14:40:00,
2013-06-12 08:46:00,70.5,26.3,30.14,East,96,0.0,2.7,19,0.00,,SCT220,0.00,VWS V13.01,2013-06-12 14:46:00,
2013-06-12 08:51:00,71.2,24.2,30.14,ESE,115,3.1,4.0,17,0.00,,SCT220,0.00,VWS V13.01,2013-06-12 14:51:00,
2013-06-12 08:56:00,71.8,23.2,30.14,East,95,3.6,5.8,16,0.00,,SCT220,0.00,VWS V13.01,2013-06-12 14:56:00,
2013-06-12 09:01:00,72.3,23.6,30.14,SE,140,3.6,3.6,16,0.00,,SCT220,0.00,VWS V13.01,2013-06-12 15:01:00,
2013-06-12 09:06:00,73.0,21.1,30.14,SW,231,0.0,5.8,14,0.00,,BKN220,0.00,VWS V13.01,2013-06-12 15:06:00,
2013-06-12 09:11:00,73.6,19.8,30.14,ESE,110,0.0,5.8,13,0.00,,BKN220,0.00,VWS V13.01,2013-06-12 15:11:00,
2013-06-12 09:16:00,74.5,16.6,30.14,ESE,113,2.7,4.0,11,0.00,,BKN220,0.00,VWS V13.01,2013-06-12 15:16:00,
2013-06-12 09:21:00,75.0,17.0,30.14,ESE,116,2.7,4.9,11,0.00,,BKN220,0.00,VWS V13.01,2013-06-12 15:21:00,
2013-06-12 09:26:00,75.2,14.9,30.14,East,93,5.8,6.3,10,0.00,,BKN220,0.00,VWS V13.01,2013-06-12 15:26:00,
2013-06-12 09:31:00,75.4,15.1,30.14,SE,125,2.7,3.1,10,0.00,,BKN220,0.00,VWS V13.01,2013-06-12 15:31:00,
2013-06-12 09:36:00,76.5,15.9,30.14,East,86,3.6,3.6,10,0.00,,BKN220,0.00,VWS V13.01,2013-06-12 15:36:00,
2013-06-12 09:41:00,77.4,16.6,30.14,East,87,2.7,4.9,10,0.00,,BKN220,0.00,VWS V13.01,2013-06-12 15:41:00,
2013-06-12 09:46:00,77.5,16.7,30.14,East,83,2.7,4.9,10,0.00,,BKN220,0.00,VWS V13.01,2013-06-12 15:46:00,
2013-06-12 09:51:00,77.5,11.6,30.14,East,99,3.6,7.2,8,0.00,,BKN220,0.00,VWS V13.01,2013-06-12 15:51:00,
2013-06-12 09:56:00,77.5,11.6,30.14,NE,40,2.7,7.2,8,0.00,,BKN220,0.00,VWS V13.01,2013-06-12 15:56:00,
2013-06-12 10:01:00,78.6,12.4,30.14,ENE,73,3.1,3.1,8,0.00,,BKN220,0.00,VWS V13.01,2013-06-12 16:01:00,
2013-06-12 10:06:00,78.6,12.4,30.14,East,89,2.7,7.6,8,0.00,,BKN220,0.00,VWS V13.01,2013-06-12 16:06:00,
2013-06-12 10:11:00,78.4,12.3,30.14,SE,129,3.6,7.6,8,0.00,,BKN220,0.00,VWS V13.01,2013-06-12 16:11:00,
2013-06-12 10:16:00,78.6,12.4,30.14,East,86,5.4,5.4,8,0.00,,BKN220,0.00,VWS V13.01,2013-06-12 16:16:00,
2013-06-12 10:21:00,79.2,9.8,30.14,ENE,61,4.0,5.4,7,0.00,,BKN220,0.00,VWS V13.01,2013-06-12 16:21:00,
2013-06-12 10:26:00,79.3,10.0,30.14,West,269,3.1,5.4,7,0.00,,BKN220,0.00,VWS V13.01,2013-06-12 16:26:00,
2013-06-12 10:31:00,79.7,10.2,30.14,East,97,4.9,5.8,7,0.00,,BKN220,0.00,VWS V13.01,2013-06-12 16:31:00,
2013-06-12 10:36:00,80.1,10.5,30.14,ESE,109,3.6,5.8,7,0.00,,SCT220,0.00,VWS V13.01,2013-06-12 16:36:00,
2013-06-12 10:41:00,80.2,10.6,30.14,East,90,5.4,8.1,7,0.00,,SCT220,0.00,VWS V13.01,2013-06-12 16:41:00,
2013-06-12 10:46:00,79.9,10.4,30.14,SE,137,4.0,5.4,7,0.00,,SCT220,0.00,VWS V13.01,2013-06-12 16:46:00,
2013-06-12 10:51:00,80.1,10.5,30.14,ESE,114,2.2,5.4,7,0.00,,SCT220,0.00,VWS V13.01,2013-06-12 16:51:00,
2013-06-12 10:57:00,81.0,11.2,30.14,East,92,5.8,7.6,7,0.00,,SCT220,0.00,VWS V13.01,2013-06-12 16:57:00,
2013-06-12 11:02:00,81.1,11.3,30.14,East,92,2.2,2.2,7,0.00,,SCT220,0.00,VWS V13.01,2013-06-12 17:02:00,
2013-06-12 11:07:00,82.0,11.9,30.14,ENE,67,3.1,5.8,7,0.00,,SCT220,0.00,VWS V13.01,2013-06-12 17:07:00,
2013-06-12 11:12:00,81.7,11.7,30.11,NE,52,0.0,8.3,7,0.00,,SCT220,0.00,VWS V13.01,2013-06-12 17:12:00,
2013-06-12 11:17:00,82.2,12.1,30.11,ESE,110,3.1,8.3,7,0.00,,BKN220,0.00,VWS V13.01,2013-06-12 17:17:00,
2013-06-12 11:22:00,82.4,8.8,30.11,ENE,74,3.6,8.3,6,0.00,,BKN220,0.00,VWS V13.01,2013-06-12 17:22:00,
2013-06-12 11:27:00,83.1,9.3,30.08,NE,41,5.8,8.3,6,0.00,,BKN220,0.00,VWS V13.01,2013-06-12 17:27:00,
2013-06-12 11:32:00,82.9,9.1,30.08,SSE,165,4.9,6.3,6,0.00,,BKN220,0.00,VWS V13.01,2013-06-12 17:32:00,
2013-06-12 11:37:00,82.4,8.8,30.08,East,97,3.1,7.6,6,0.00,,BKN220,0.00,VWS V13.01,2013-06-12 17:37:00,
2013-06-12 11:42:00,81.9,11.8,30.08,SE,135,3.6,7.6,7,0.00,,BKN220,0.00,VWS V13.01,2013-06-12 17:42:00,
2013-06-12 11:47:00,81.5,11.6,30.08,ESE,114,4.0,6.3,7,0.00,,BKN220,0.00,VWS V13.01,2013-06-12 17:47:00,
2013-06-12 11:52:00,81.9,11.8,30.08,ENE,76,3.1,6.3,7,0.00,,BKN220,0.00,VWS V13.01,2013-06-12 17:52:00,
2013-06-12 11:57:00,82.6,8.9,30.08,East,96,6.7,6.7,6,0.00,,BKN220,0.00,VWS V13.01,2013-06-12 17:57:00,
2013-06-12 12:02:00,82.9,9.1,30.08,ESE,102,4.0,7.6,6,0.00,,BKN220,0.00,VWS V13.01,2013-06-12 18:02:00,
2013-06-12 12:07:00,83.8,9.8,30.08,ESE,110,3.6,7.6,6,0.00,,BKN220,0.00,VWS V13.01,2013-06-12 18:07:00,
2013-06-12 12:12:00,84.2,10.1,30.05,South,171,4.9,7.6,6,0.00,,BKN220,0.00,VWS V13.01,2013-06-12 18:12:00,
2013-06-12 12:17:00,83.8,9.8,30.05,East,99,3.6,6.3,6,0.00,,BKN220,0.00,VWS V13.01,2013-06-12 18:17:00,
2013-06-12 12:22:00,84.4,10.2,30.05,ENE,68,2.7,7.6,6,0.00,,BKN220,0.00,VWS V13.01,2013-06-12 18:22:00,
2013-06-12 12:27:00,85.5,11.0,30.05,East,97,6.3,7.6,6,0.00,,BKN220,0.00,VWS V13.01,2013-06-12 18:27:00,
2013-06-12 12:32:00,85.8,11.2,30.05,NE,52,4.9,10.1,6,0.00,,BKN220,0.00,VWS V13.01,2013-06-12 18:32:00,
2013-06-12 12:37:00,86.2,11.5,30.05,ENE,73,2.7,10.1,6,0.00,,BKN220,0.00,VWS V13.01,2013-06-12 18:37:00,
2013-06-12 12:42:00,86.4,11.6,30.05,NE,54,2.7,10.1,6,0.00,,BKN220,0.00,VWS V13.01,2013-06-12 18:42:00,
2013-06-12 12:47:00,86.4,11.6,30.05,East,94,3.6,10.5,6,0.00,,BKN220,0.00,VWS V13.01,2013-06-12 18:47:00,
2013-06-12 12:52:00,86.4,11.6,30.05,ESE,114,6.3,10.5,6,0.00,,BKN220,0.00,VWS V13.01,2013-06-12 18:52:00,
2013-06-12 12:57:00,86.5,11.7,30.05,ENE,71,6.3,10.5,6,0.00,,BKN220,0.00,VWS V13.01,2013-06-12 18:57:00,
2013-06-12 13:02:00,86.7,11.9,30.05,NE,42,4.9,7.6,6,0.00,,BKN220,0.00,VWS V13.01,2013-06-12 19:02:00,
2013-06-12 13:08:00,86.7,11.9,30.05,East,97,3.1,8.1,6,0.00,,BKN220,0.00,VWS V13.01,2013-06-12 19:08:00,
2013-06-12 13:13:00,87.1,12.1,30.02,ESE,103,7.6,10.1,6,0.00,,BKN220,0.00,VWS V13.01,2013-06-12 19:13:00,
2013-06-12 13:18:00,87.3,12.2,30.02,ESE,112,4.0,7.2,6,0.00,,BKN220,0.00,VWS V13.01,2013-06-12 19:18:00,
2013-06-12 13:23:00,87.8,8.6,30.02,NE,40,5.4,7.2,5,0.00,,BKN220,0.00,VWS V13.01,2013-06-12 19:23:00,
2013-06-12 13:28:00,88.3,8.9,30.02,ENE,78,4.9,8.7,5,0.00,,BKN220,0.00,VWS V13.01,2013-06-12 19:28:00,
2013-06-12 13:33:00,88.7,9.2,30.02,NE,50,3.1,8.3,5,0.00,,BKN220,0.00,VWS V13.01,2013-06-12 19:33:00,
2013-06-12 13:38:00,89.2,9.6,30.02,ENE,70,0.0,8.3,5,0.00,,BKN220,0.00,VWS V13.01,2013-06-12 19:38:00,
2013-06-12 13:43:00,90.0,10.1,30.02,NE,55,4.0,9.2,5,0.00,,BKN220,0.00,VWS V13.01,2013-06-12 19:43:00,
2013-06-12 13:48:00,89.8,9.9,30.02,NE,56,4.0,8.1,5,0.00,,BKN220,0.00,VWS V13.01,2013-06-12 19:48:00,
2013-06-12 13:53:00,90.0,10.1,30.02,SW,234,3.1,8.1,5,0.00,,BKN220,0.00,VWS V13.01,2013-06-12 19:53:00,
2013-06-12 13:58:00,90.5,10.4,30.02,ESE,122,3.6,8.1,5,0.00,,BKN220,0.00,VWS V13.01,2013-06-12 19:58:00,
2013-06-12 14:03:00,90.7,10.6,30.02,SE,126,8.1,8.1,5,0.00,,BKN220,0.00,VWS V13.01,2013-06-12 20:03:00,
2013-06-12 14:08:00,90.7,10.6,30.02,WSW,244,3.6,11.0,5,0.00,,BKN220,0.00,VWS V13.01,2013-06-12 20:08:00,
2013-06-12 14:13:00,90.9,10.7,30.02,East,95,6.3,11.0,5,0.00,,BKN220,0.00,VWS V13.01,2013-06-12 20:13:00,
2013-06-12 14:18:00,90.7,10.6,30.02,ESE,117,5.8,7.6,5,0.00,,BKN220,0.00,VWS V13.01,2013-06-12 20:18:00,
2013-06-12 14:23:00,90.9,10.7,30.02,ESE,111,3.6,9.6,5,0.00,,BKN220,0.00,VWS V13.01,2013-06-12 20:23:00,
2013-06-12 14:28:00,91.2,10.9,30.02,ENE,76,5.8,9.6,5,0.00,,BKN220,0.00,VWS V13.01,2013-06-12 20:28:00,
2013-06-12 14:33:00,91.2,10.9,30.02,ENE,71,0.0,6.3,5,0.00,,BKN220,0.00,VWS V13.01,2013-06-12 20:33:00,
2013-06-12 14:38:00,91.6,6.3,30.02,ESE,102,4.0,6.3,4,0.00,,BKN220,0.00,VWS V13.01,2013-06-12 20:38:00,
2013-06-12 14:43:00,91.6,6.3,29.99,East,96,7.2,9.6,4,0.00,,BKN220,0.00,VWS V13.01,2013-06-12 20:43:00,
2013-06-12 14:48:00,91.6,6.3,29.99,NNE,18,8.1,8.1,4,0.00,,BKN220,0.00,VWS V13.01,2013-06-12 20:48:00,
2013-06-12 14:53:00,91.9,6.5,29.99,ESE,119,7.6,9.6,4,0.00,,BKN220,0.00,VWS V13.01,2013-06-12 20:53:00,
2013-06-12 14:58:00,91.8,6.4,29.99,ENE,72,6.3,9.6,4,0.00,,BKN220,0.00,VWS V13.01,2013-06-12 20:58:00,
2013-06-12 15:03:00,91.9,6.5,29.99,ESE,118,2.2,5.8,4,0.00,,BKN220,0.00,VWS V13.01,2013-06-12 21:03:00,
2013-06-12 15:08:00,92.1,6.6,29.99,ENE,76,4.0,6.3,4,0.00,,BKN220,0.00,VWS V13.01,2013-06-12 21:08:00,
2013-06-12 15:13:00,91.8,6.4,29.99,East,93,8.1,8.3,4,0.00,,BKN220,0.00,VWS V13.01,2013-06-12 21:13:00,
2013-06-12 15:18:00,91.2,10.9,29.99,NE,38,4.0,14.1,5,0.00,,BKN220,0.00,VWS V13.01,2013-06-12 21:18:00,
2013-06-12 15:23:00,90.9,10.7,29.99,NE,44,9.6,14.1,5,0.00,,BKN220,0.00,VWS V13.01,2013-06-12 21:23:00,
2013-06-12 15:28:00,91.2,10.9,29.99,ENE,62,5.8,14.1,5,0.00,,BKN220,0.00,VWS V13.01,2013-06-12 21:28:00,
2013-06-12 15:33:00,91.4,6.1,29.99,NE,43,5.4,6.7,4,0.00,,BKN220,0.00,VWS V13.01,2013-06-12 21:33:00,
2013-06-12 15:38:00,91.6,6.3,29.96,ENE,71,3.6,6.7,4,0.00,,BKN220,0.00,VWS V13.01,2013-06-12 21:38:00,
2013-06-12 15:43:00,92.1,6.6,29.96,ENE,68,3.6,7.6,4,0.00,,BKN220,0.00,VWS V13.01,2013-06-12 21:43:00,
2013-06-12 15:49:00,92.3,6.8,29.96,NNE,27,3.6,8.3,4,0.00,,BKN220,0.00,VWS V13.01,2013-06-12 21:49:00,
2013-06-12 15:54:00,92.5,6.9,29.96,ESE,102,2.7,10.5,4,0.00,,BKN220,0.00,VWS V13.01,2013-06-12 21:54:00,
2013-06-12 15:59:00,92.7,7.0,29.96,WSW,254,2.7,10.5,4,0.00,,BKN220,0.00,VWS V13.01,2013-06-12 21:59:00,
2013-06-12 16:04:00,92.8,7.1,29.96,SE,126,4.0,4.5,4,0.00,,BKN220,0.00,VWS V13.01,2013-06-12 22:04:00,
2013-06-12 16:09:00,92.7,7.0,29.96,ENE,65,5.8,8.1,4,0.00,,BKN220,0.00,VWS V13.01,2013-06-12 22:09:00,
2013-06-12 16:14:00,92.8,7.1,29.96,SE,143,3.1,8.3,4,0.00,,BKN220,0.00,VWS V13.01,2013-06-12 22:14:00,
2013-06-12 16:19:00,92.8,7.1,29.96,SE,146,2.7,6.3,4,0.00,,BKN220,0.00,VWS V13.01,2013-06-12 22:19:00,
2013-06-12 16:24:00,92.8,7.1,29.96,SE,126,6.3,6.3,4,0.00,,BKN220,0.00,VWS V13.01,2013-06-12 22:24:00,
2013-06-12 16:29:00,92.8,7.1,29.96,North,357,5.4,6.3,4,0.00,,BKN220,0.00,VWS V13.01,2013-06-12 22:29:00,
2013-06-12 16:34:00,92.5,6.9,29.96,SSE,155,8.7,8.7,4,0.00,,BKN220,0.00,VWS V13.01,2013-06-12 22:34:00,
2013-06-12 16:39:00,91.6,6.3,29.96,East,90,6.3,8.7,4,0.00,,BKN220,0.00,VWS V13.01,2013-06-12 22:39:00,
2013-06-12 16:44:00,91.0,10.8,29.96,East,88,6.3,13.2,5,0.00,,BKN220,0.00,VWS V13.01,2013-06-12 22:44:00,
2013-06-12 16:49:00,90.7,10.6,29.96,SE,129,5.4,8.7,5,0.00,,BKN220,0.00,VWS V13.01,2013-06-12 22:49:00,
2013-06-12 16:55:00,90.5,10.4,29.96,ENE,74,3.6,8.7,5,0.00,,BKN220,0.00,VWS V13.01,2013-06-12 22:55:00,
2013-06-12 17:00:00,90.9,10.7,29.96,ENE,65,5.4,8.7,5,0.00,,BKN220,0.00,VWS V13.01,2013-06-12 23:00:00,
2013-06-12 17:05:00,91.0,10.8,29.96,ESE,103,5.4,8.7,5,0.00,,,0.00,VWS V13.01,2013-06-12 23:05:00,
2013-06-12 17:10:00,90.7,10.6,29.96,East,98,5.4,13.2,5,0.00,,,0.00,VWS V13.01,2013-06-12 23:10:00,
2013-06-12 17:15:00,90.3,10.3,29.96,ESE,104,5.8,13.2,5,0.00,,,0.00,VWS V13.01,2013-06-12 23:15:00,
2013-06-12 17:20:00,90.0,10.1,29.96,SE,125,8.7,11.0,5,0.00,,,0.00,VWS V13.01,2013-06-12 23:20:00,
2013-06-12 17:25:00,89.8,9.9,29.93,SSE,159,8.1,12.8,5,0.00,,,0.00,VWS V13.01,2013-06-12 23:25:00,
2013-06-12 17:30:00,89.6,9.8,29.93,SE,136,8.1,12.8,5,0.00,,,0.00,VWS V13.01,2013-06-12 23:30:00,
2013-06-12 17:35:00,89.6,9.8,29.93,ESE,121,2.2,8.1,5,0.00,,,0.00,VWS V13.01,2013-06-12 23:35:00,
2013-06-12 17:40:00,89.4,9.7,29.93,ESE,116,3.1,8.1,5,0.00,,,0.00,VWS V13.01,2013-06-12 23:40:00,
2013-06-12 17:45:00,89.2,9.6,29.93,SE,128,3.6,8.1,5,0.00,,,0.00,VWS V13.01,2013-06-12 23:45:00,
2013-06-12 17:50:00,88.9,9.3,29.93,SSE,148,0.0,6.3,5,0.00,,,0.00,VWS V13.01,2013-06-12 23:50:00,
2013-06-12 17:55:00,88.5,9.1,29.96,SSE,166,4.0,6.3,5,0.00,,,0.00,VWS V13.01,2013-06-12 23:55:00,
2013-06-12 18:00:00,88.3,8.9,29.96,ESE,108,2.7,3.1,5,0.00,,,0.00,VWS V13.01,2013-06-13 00:00:00,
2013-06-12 18:05:00,88.5,9.1,29.96,South,176,5.8,9.6,5,0.00,,,0.00,VWS V13.01,2013-06-13 00:05:00,
2013-06-12 18:10:00,88.5,9.1,29.96,WSW,243,14.5,15.0,5,0.00,,,0.00,VWS V13.01,2013-06-13 00:10:00,
2013-06-12 18:15:00,87.8,8.6,29.96,SW,230,13.2,13.2,5,0.00,,,0.00,VWS V13.01,2013-06-13 00:15:00,
2013-06-12 18:20:00,87.3,12.2,29.96,SW,218,3.6,13.2,6,0.00,,,0.00,VWS V13.01,2013-06-13 00:20:00,
2013-06-12 18:25:00,87.3,12.2,29.96,West,274,5.8,13.2,6,0.00,,,0.00,VWS V13.01,2013-06-13 00:25:00,
2013-06-12 18:30:00,87.8,8.6,29.96,SW,225,10.1,13.2,5,0.00,,,0.00,VWS V13.01,2013-06-13 00:30:00,
2013-06-12 18:35:00,88.2,8.8,29.96,SW,227,10.5,13.6,5,0.00,,,0.00,VWS V13.01,2013-06-13 00:35:00,
2013-06-12 18:40:00,88.3,8.9,29.96,North,2,2.7,13.6,5,0.00,,,0.00,VWS V13.01,2013-06-13 00:40:00,
2013-06-12 18:45:00,88.3,8.9,29.96,West,264,5.8,8.7,5,0.00,,,0.00,VWS V13.01,2013-06-13 00:45:00,
2013-06-12 18:50:00,88.2,8.8,29.96,West,259,10.1,12.3,5,0.00,,,0.00,VWS V13.01,2013-06-13 00:50:00,
2013-06-12 18:55:00,88.3,8.9,29.96,WNW,289,2.7,13.2,5,0.00,,,0.00,VWS V13.01,2013-06-13 00:55:00,
2013-06-12 19:00:00,88.3,8.9,29.96,NNW,327,4.0,4.0,5,0.00,,,0.00,VWS V13.01,2013-06-13 01:00:00,
2013-06-12 19:05:00,88.3,8.9,29.96,North,357,2.7,8.1,5,0.00,,BKN220,0.00,VWS V13.01,2013-06-13 01:05:00,
2013-06-12 19:10:00,88.5,9.1,29.96,NW,325,6.3,8.3,5,0.00,,BKN220,0.00,VWS V13.01,2013-06-13 01:10:00,
2013-06-12 19:15:00,88.7,9.2,29.96,NNE,33,3.1,3.1,5,0.00,,BKN220,0.00,VWS V13.01,2013-06-13 01:15:00,
2013-06-12 19:20:00,88.3,8.9,29.96,SSW,192,0.0,4.0,5,0.00,,BKN220,0.00,VWS V13.01,2013-06-13 01:20:00,
2013-06-12 19:25:00,87.8,8.6,29.96,SSW,192,0.0,4.0,5,0.00,,BKN220,0.00,VWS V13.01,2013-06-13 01:25:00,
2013-06-12 19:30:00,87.1,12.1,29.96,SE,130,0.0,0.0,6,0.00,,BKN220,0.00,VWS V13.01,2013-06-13 01:30:00,
2013-06-12 19:35:00,86.4,11.6,29.96,ESE,117,0.0,3.6,6,0.00,,BKN220,0.00,VWS V13.01,2013-06-13 01:35:00,
2013-06-12 19:40:00,85.8,11.2,29.96,ENE,69,4.0,4.9,6,0.00,,BKN220,0.00,VWS V13.01,2013-06-13 01:40:00,
2013-06-12 19:45:00,86.2,11.5,29.96,ESE,119,2.7,4.9,6,0.00,,BKN220,0.00,VWS V13.01,2013-06-13 01:45:00,
2013-06-12 19:50:00,86.5,11.7,29.96,East,83,5.8,5.8,6,0.00,,BKN220,0.00,VWS V13.01,2013-06-13 01:50:00,
2013-06-12 19:56:00,86.7,11.9,29.96,SSE,150,0.0,5.8,6,0.00,,BKN220,0.00,VWS V13.01,2013-06-13 01:56:00,
2013-06-12 20:01:00,86.5,11.7,29.96,WSW,248,0.0,0.0,6,0.00,,BKN220,0.00,VWS V13.01,2013-06-13 02:01:00,
2013-06-12 20:06:00,86.4,11.6,29.96,SSE,159,2.7,2.7,6,0.00,,BKN220,0.00,VWS V13.01,2013-06-13 02:06:00,
2013-06-12 20:11:00,85.8,11.2,29.99,SSE,159,4.0,4.0,6,0.00,,BKN220,0.00,VWS V13.01,2013-06-13 02:11:00,
2013-06-12 20:16:00,85.1,10.7,29.99,SE,137,3.1,3.1,6,0.00,,BKN220,0.00,VWS V13.01,2013-06-13 02:16:00,
2013-06-12 20:21:00,84.6,10.3,29.99,SE,124,3.6,12.8,6,0.00,,BKN220,0.00,VWS V13.01,2013-06-13 02:21:00,
2013-06-12 20:26:00,84.9,10.6,30.02,NNE,31,2.7,17.4,6,0.00,,BKN220,0.00,VWS V13.01,2013-06-13 02:26:00,
2013-06-12 20:31:00,85.8,11.2,30.02,East,99,4.9,17.4,6,0.00,,BKN220,0.00,VWS V13.01,2013-06-13 02:31:00,
2013-06-12 20:36:00,86.4,11.6,30.02,ESE,102,3.6,17.4,6,0.00,,BKN220,0.00,VWS V13.01,2013-06-13 02:36:00,
2013-06-12 20:41:00,86.4,11.6,30.02,WSW,247,4.9,17.4,6,0.00,,BKN220,0.00,VWS V13.01,2013-06-13 02:41:00,
2013-06-12 20:46:00,86.2,11.5,30.02,WSW,237,3.6,3.6,6,0.00,,BKN220,0.00,VWS V13.01,2013-06-13 02:46:00,
2013-06-12 20:51:00,85.6,11.1,30.02,ESE,118,3.6,4.0,6,0.00,,BKN220,0.00,VWS V13.01,2013-06-13 02:51:00,
2013-06-12 20:56:00,84.9,10.6,30.02,SE,143,2.7,4.9,6,0.00,,BKN220,0.00,VWS V13.01,2013-06-13 02:56:00,
2013-06-12 21:01:00,84.4,10.2,30.02,ESE,117,2.7,3.6,6,0.00,,BKN220,0.00,VWS V13.01,2013-06-13 03:01:00,
2013-06-12 21:06:00,84.0,9.9,30.02,ESE,111,4.9,4.9,6,0.00,,BKN220,0.00,VWS V13.01,2013-06-13 03:06:00,
2013-06-12 21:11:00,83.8,9.8,30.02,ESE,111,0.0,4.9,6,0.00,,BKN220,0.00,VWS V13.01,2013-06-13 03:11:00,
2013-06-12 21:16:00,83.5,9.5,30.02,ESE,111,0.0,2.2,6,0.00,,BKN220,0.00,VWS V13.01,2013-06-13 03:16:00,
2013-06-12 21:21:00,82.9,9.1,30.02,SE,128,2.7,3.1,6,0.00,,BKN220,0.00,VWS V13.01,2013-06-13 03:21:00,
2013-06-12 21:26:00,82.6,8.9,30.02,ESE,122,0.0,3.6,6,0.00,,BKN220,0.00,VWS V13.01,2013-06-13 03:26:00,
2013-06-12 21:31:00,82.0,11.9,30.02,ESE,122,2.7,2.7,7,0.00,,BKN220,0.00,VWS V13.01,2013-06-13 03:31:00,
2013-06-12 21:36:00,81.5,11.6,30.02,East,97,2.7,4.0,7,0.00,,BKN220,0.00,VWS V13.01,2013-06-13 03:36:00,
2013-06-12 21:41:00,81.3,11.4,30.02,SSE,162,2.7,4.9,7,0.00,,BKN220,0.00,VWS V13.01,2013-06-13 03:41:00,
2013-06-12 21:46:00,81.3,11.4,30.02,ESE,123,2.7,5.4,7,0.00,,BKN220,0.00,VWS V13.01,2013-06-13 03:46:00,
2013-06-12 21:51:00,81.5,11.6,30.02,SE,144,3.1,6.3,7,0.00,,BKN220,0.00,VWS V13.01,2013-06-13 03:51:00,
2013-06-12 21:56:00,81.5,11.6,30.05,SE,146,2.7,6.3,7,0.00,,BKN220,0.00,VWS V13.01,2013-06-13 03:56:00,
2013-06-12 22:01:00,81.9,11.8,30.05,SE,124,7.6,7.6,7,0.00,,BKN220,0.00,VWS V13.01,2013-06-13 04:01:00,
2013-06-12 22:02:00,82.0,11.9,30.05,SE,133,2.2,7.6,7,0.00,,BKN220,0.00,VWS V13.01,2013-06-13 04:02:00,
2013-06-12 22:07:00,82.2,12.1,30.05,SE,139,7.2,7.6,7,0.00,,BKN220,0.00,VWS V13.01,2013-06-13 04:07:00,
2013-06-12 22:12:00,82.6,8.9,30.05,SE,140,8.3,8.3,6,0.00,,BKN220,0.00,VWS V13.01,2013-06-13 04:12:00,
2013-06-12 22:17:00,82.8,9.0,30.05,East,98,4.0,8.1,6,0.00,,BKN220,0.00,VWS V13.01,2013-06-13 04:17:00,
2013-06-12 22:22:00,82.8,9.0,30.05,ESE,109,3.6,8.1,6,0.00,,BKN220,0.00,VWS V13.01,2013-06-13 04:22:00,
2013-06-12 22:27:00,82.8,9.0,30.05,ESE,119,5.8,8.1,6,0.00,,BKN220,0.00,VWS V13.01,2013-06-13 04:27:00,
2013-06-12 22:32:00,82.8,9.0,30.05,ESE,111,5.4,7.6,6,0.00,,BKN220,0.00,VWS V13.01,2013-06-13 04:32:00,
2013-06-12 22:37:00,82.6,8.9,30.05,ESE,118,3.6,8.1,6,0.00,,BKN220,0.00,VWS V13.01,2013-06-13 04:37:00,
2013-06-12 22:42:00,82.4,8.8,30.05,SE,141,2.2,8.7,6,0.00,,BKN220,0.00,VWS V13.01,2013-06-13 04:42:00,
2013-06-12 22:47:00,82.2,12.1,30.05,SSW,197,4.0,6.3,7,0.00,,BKN220,0.00,VWS V13.01,2013-06-13 04:47:00,
2013-06-12 22:52:00,82.0,11.9,30.05,ESE,123,2.7,10.5,7,0.00,,BKN220,0.00,VWS V13.01,2013-06-13 04:52:00,
2013-06-12 22:57:00,82.0,11.9,30.05,SE,125,2.7,10.5,7,0.00,,BKN220,0.00,VWS V13.01,2013-06-13 04:57:00,
2013-06-12 23:02:00,81.9,11.8,30.05,ESE,119,4.0,5.8,7,0.00,,BKN200,0.00,VWS V13.01,2013-06-13 05:02:00,
2013-06-12 23:08:00,81.9,11.8,30.05,SSE,147,0.0,6.3,7,0.00,,BKN200,0.00,VWS V13.01,2013-06-13 05:08:00,
2013-06-12 23:13:00,81.7,11.7,30.08,NW,321,0.0,6.3,7,0.00,,BKN200,0.00,VWS V13.01,2013-06-13 05:13:00,
2013-06-12 23:18:00,81.3,11.4,30.08,WSW,256,0.0,0.0,7,0.00,,BKN200,0.00,VWS V13.01,2013-06-13 05:18:00,
2013-06-12 23:23:00,81.0,11.2,30.08,WNW,285,2.7,4.5,7,0.00,,BKN200,0.00,VWS V13.01,2013-06-13 05:23:00,
2013-06-12 23:28:00,80.4,10.8,30.08,West,278,3.1,4.5,7,0.00,,BKN200,0.00,VWS V13.01,2013-06-13 05:28:00,
2013-06-12 23:33:00,79.9,10.4,30.08,West,280,0.0,3.1,7,0.00,,BKN200,0.00,VWS V13.01,2013-06-13 05:33:00,
2013-06-12 23:38:00,79.3,10.0,30.08,West,281,0.0,3.1,7,0.00,,BKN200,0.00,VWS V13.01,2013-06-13 05:38:00,
2013-06-12 23:43:00,78.8,9.6,30.08,NW,315,0.0,4.0,7,0.00,,BKN200,0.00,VWS V13.01,2013-06-13 05:43:00,
2013-06-12 23:48:00,78.1,12.0,30.08,NW,315,0.0,0.0,8,0.00,,BKN200,0.00,VWS V13.01,2013-06-13 05:48:00,
2013-06-12 23:53:00,77.0,11.2,30.08,NW,315,0.0,0.0,8,0.00,,BKN200,0.00,VWS V13.01,2013-06-13 05:53:00,
2013-06-12 23:58:00,75.7,21.5,30.08,East,101,0.0,3.6,13,0.00,,BKN200,0.00,VWS V13.01,2013-06-13 05:58:00,